Home   Weather   Freital   Past weeks

Flag for Germany Past Weather in Freital, Saxony, Germany — Yesterday and Last 2 Weeks

Now
46 °F

Overcast.


Feels Like: 44 °F
Forecast: 30 / 44 °F
Wind: 6 mph from Southwest

Location: Dresden-Klotzsche

Current Time: Dec 11, 2016 at 3:23:41 am

Latest Report: Dec 11, 2016 at 2:50 am


Visibility: N/A

Pressure: 29.98 "Hg

Humidity: 76%

Dew Point: 39 °F

Location of FreitalLocation

Past Weather in Freital — Graph

°F

Freital Temperature Yesterday

Maximum temperature yesterday: 54 °F (at 1:50 pm)
Minimum temperature yesterday: 46 °F (at 12:20 am)
Average temperature yesterday: 49 °F

High & Low Weather Summary for the Past Weeks

 TemperatureHumidityPressure
High54 °F (Dec 8, 1:20 pm)100% (Nov 26, 2:20 am)30.54 "Hg (Nov 26, 2:20 am)
Low19 °F (Dec 6, 4:50 am)28% (Dec 8, 3:20 pm)29.80 "Hg (Dec 2, 12:50 am)
Average34 °F84%30.26 "Hg
* Reported Nov 26 2:20 am — Dec 11 2:20 am, Freital, Weather by CustomWeather, © 2016

Note: Actual official high and low records may vary slightly from our data, if they occured in-between our weather recording intervals... More about our weather records

Advertising

Freital Weather History for the Previous 24 Hours

Scroll right to see more
 ConditionsComfort  
Time TempWeatherWind HumidityBarometerVisibility
2:20 am
Sun, Dec 11
46 °FOvercast.7 mph76%30.01 "HgN/A
1:50 am46 °FOvercast.7 mph76%30.04 "HgN/A
1:20 am46 °FOvercast.6 mph76%30.04 "HgN/A
12:50 am46 °FOvercast.7 mph76%30.07 "HgN/A
12:20 am46 °FPassing clouds.6 mph71%30.07 "HgN/A
11:50 pm
Sat, Dec 10
46 °FOvercast.8 mph71%30.07 "HgN/A
11:20 pm46 °FOvercast.7 mph71%30.09 "HgN/A
10:50 pm46 °FOvercast.8 mph71%30.09 "HgN/A
10:20 pm48 °FOvercast.8 mph66%30.09 "HgN/A
9:50 pm46 °FOvercast.7 mph71%30.09 "HgN/A
9:20 pm48 °FOvercast.7 mph66%30.12 "HgN/A
8:50 pm48 °FOvercast.7 mph66%30.12 "HgN/A
8:20 pm48 °FOvercast.8 mph66%30.12 "HgN/A
7:50 pm50 °FOvercast.12 mph67%30.12 "HgN/A
7:20 pm48 °FPassing clouds.10 mph71%30.15 "HgN/A
6:50 pm50 °FOvercast.8 mph67%30.12 "HgN/A
6:20 pm50 °FPartly cloudy.8 mph67%30.12 "HgN/A
5:50 pm50 °FPassing clouds.9 mph71%30.15 "HgN/A
5:20 pm50 °FPassing clouds.10 mph71%30.15 "HgN/A
4:50 pm50 °FPassing clouds.9 mph71%30.12 "HgN/A
4:20 pm52 °FPassing clouds.9 mph67%30.12 "HgN/A
3:50 pm52 °FPartly sunny.9 mph62%30.12 "HgN/A
3:20 pm52 °FPartly sunny.13 mph62%30.12 "HgN/A
2:50 pm52 °FPassing clouds.12 mph62%30.12 "HgN/A
2:20 pm52 °FPassing clouds.14 mph62%30.12 "HgN/A
1:50 pm54 °FPassing clouds.9 mph58%30.12 "HgN/A
1:20 pm52 °FPassing clouds.9 mph62%30.12 "HgN/A
12:50 pm52 °FPassing clouds.12 mph62%30.15 "HgN/A
12:20 pm52 °FPassing clouds.16 mph62%30.15 "HgN/A
11:50 am52 °FPassing clouds.15 mph67%30.15 "HgN/A
11:20 am52 °FPassing clouds.13 mph67%30.15 "HgN/A
10:50 am52 °FPassing clouds.12 mph72%30.15 "HgN/A
10:20 am50 °FSunny.13 mph76%30.18 "Hg10 mi
9:50 am50 °FPassing clouds.12 mph71%30.18 "HgN/A
9:20 am50 °FSunny.10 mph71%30.18 "Hg10 mi
8:50 am48 °FPassing clouds.13 mph82%30.18 "HgN/A
8:20 am48 °FSunny.13 mph82%30.18 "Hg10 mi
7:50 am48 °FClear.12 mph82%30.18 "Hg10 mi
7:20 am48 °FPassing clouds.10 mph82%30.18 "HgN/A
6:50 am48 °FPassing clouds.12 mph82%30.18 "HgN/A
6:20 am48 °FPassing clouds.9 mph82%30.18 "HgN/A
5:50 am48 °FPassing clouds.9 mph82%30.18 "HgN/A
5:20 am48 °FPassing clouds.8 mph82%30.21 "HgN/A
4:50 am48 °FPassing clouds.10 mph82%30.18 "HgN/A
4:20 am48 °FPassing clouds.10 mph82%30.21 "HgN/A
3:50 am48 °FPassing clouds.10 mph82%30.21 "HgN/A
3:20 am48 °FPassing clouds.8 mph82%30.21 "HgN/A
Weather by CustomWeather, © 2016

See weather overviewHow to use our weather pages